1491562800.71,20799,11.69,72704.3,-2.65,-6.13,-6.05,0,*53
1491562801.96,20800,11.69,72706.3,-2.63,-6.93,-6.85,0,*5A
1491562803.18,20801,11.69,72708.5,-2.61,-6.93,-6.89,0,*55
1491562804.4,20802,11.69,72698.3,-2.61,-7.27,-7.19,0,*50
1491562805.62,20803,11.69,72696.5,-2.61,-7.15,-7.05,0,*5D
1491562806.84,20804,11.69,72698.5,-2.61,-7.19,-6.93,0,*58
1491562808.07,20805,11.69,72702.0,-2.61,-7.01,-6.89,0,*5B
1491562809.33,20806,11.69,72700.0,-2.63,-7.05,-7.05,0,*5B
1491562810.58,20807,11.69,72700.0,-2.61,-8.07,-7.95,0,*5C
1491562811.79,20808,11.69,72698.8,-2.61,-8.75,-8.81,0,*5C
1491562813.01,20809,11.69,72686.8,-2.63,-9.93,-9.79,0,*50
1491562814.21,20810,11.69,72684.3,-2.65,-7.49,-7.23,0,*56
1491562815.4,20811,11.69,72692.8,-2.65,-6.85,-6.69,0,*59
1491562816.65,20812,11.69,72694.8,-2.65,-8.11,-8.03,0,*5B
1491562817.89,20813,11.69,72696.8,-2.67,-7.61,-7.53,0,*5A
1491562819.12,20814,11.69,72698.8,-2.67,-7.23,-7.15,0,*59
1491562820.4,20815,11.69,72702.5,-2.67,-7.65,-7.61,0,*59
1491562821.65,20816,11.69,72708.5,-2.67,-6.97,-6.85,0,*5D
1491562822.85,20817,11.69,72700.0,-2.65,-6.55,-6.51,0,*59
1491562824.09,20818,11.69,72704.8,-2.65,-7.05,-7.05,0,*52
1491562825.28,20819,11.69,72704.8,-2.65,-6.77,-6.69,0,*5C
1491562826.53,20820,11.69,72708.3,-2.63,-6.63,-6.51,0,*5E
1491562827.72,20821,11.69,72702.0,-2.61,-6.47,-6.39,0,*55
1491562828.94,20822,11.69,72704.5,-2.61,-6.97,-6.73,0,*55
1491562830.2,20823,11.69,72696.0,-2.63,-8.51,-8.37,0,*5C
1491562831.4,20824,11.69,72688.3,-2.61,-7.19,-7.15,0,*55
1491562832.62,20825,11.69,72692.3,-2.61,-6.23,-6.01,0,*58
1491562833.84,20826,11.69,72698.3,-2.61,-7.05,-6.89,0,*5E
1491562835.09,20827,11.69,72702.3,-2.61,-9.15,-9.57,0,*5C
1491562836.34,20828,11.69,72698.8,-2.63,-10.31,-10.35,0,*53
1491562837.58,20829,11.69,72694.5,-2.67,-9.83,-9.79,0,*57
1491562838.83,20830,11.69,72696.8,-2.69,-8.11,-8.03,0,*57
1491562840.03,20831,11.69,72702.0,-2.69,-8.17,-8.17,0,*55
1491562841.22,20832,11.69,72700.5,-2.73,-9.97,-9.97,0,*5D
1491562842.48,20833,11.69,72706.8,-2.73,-9.15,-9.15,0,*5C
1491562843.76,20834,11.69,72700.0,-2.75,-9.45,-9.49,0,*51
1491562845.0,20835,11.69,72690.5,-2.79,-10.27,-10.41,0,*50
1491562846.21,20836,11.69,72684.3,-2.81,-9.93,-9.97,0,*50
1491562847.44,20837,11.69,72696.5,-2.85,-10.01,-9.97,0,*66
1491562848.68,20838,11.69,72694.5,-2.85,-9.83,-9.75,0,*57
1491562849.88,20839,11.69,72692.0,-2.87,-9.05,-8.93,0,*53
1491562851.13,20840,11.69,72692.5,-2.87,-7.99,-7.91,0,*5B
1491562852.41,20841,11.69,72682.0,-2.89,-8.11,-7.99,0,*53
1491562853.63,20842,11.69,72688.5,-2.87,-7.35,-7.23,0,*56
1491562854.86,20843,11.69,72688.5,-2.87,-6.77,-6.63,0,*55
1491562856.06,20844,11.69,72676.8,-2.87,-6.77,-6.55,0,*57
1491562857.28,20845,11.69,72660.0,-2.83,-7.39,-7.19,0,*50
1491562858.53,20846,11.69,72658.3,-2.85,-7.39,-7.15,0,*59
1491562859.72,20847,11.69,72698.3,-2.83,-7.87,-7.87,0,*50
1491562860.93,20848,11.69,72696.0,-2.83,-8.89,-8.89,0,*5F
1491562862.18,20849,11.69,72694.0,-2.85,-6.97,-6.85,0,*5B
1491562863.46,20850,11.69,72692.0,-2.85,-7.65,-7.57,0,*51
1491562864.71,20851,11.69,72690.5,-2.85,-7.53,-7.43,0,*50
1491562865.96,20852,11.69,72684.5,-2.85,-7.31,-7.15,0,*54
1491562867.21,20853,11.69,72686.8,-2.83,-8.07,-7.95,0,*51
1491562868.43,20854,11.69,72684.0,-2.83,-7.57,-7.53,0,*56
1491562869.67,20855,11.69,72676.3,-2.81,-7.61,-7.49,0,*5B
1491562870.87,20856,11.69,72672.0,-2.83,-6.35,-6.09,0,*5F
1491562872.09,20857,11.69,72682.3,-2.83,-6.35,-6.23,0,*56
1491562873.29,20858,11.69,72674.5,-2.79,-6.77,-6.69,0,*54
1491562874.51,20859,11.69,72676.5,-2.79,-7.31,-7.19,0,*50
1491562875.72,20860,11.69,72672.5,-2.79,-6.63,-6.39,0,*5F
1491562876.95,20861,11.69,72676.5,-2.81,-6.59,-6.55,0,*5A
1491562878.19,20862,11.69,72688.8,-2.77,-6.27,-6.01,0,*58
1491562879.46,20863,11.69,72692.8,-2.77,-6.19,-5.93,0,*5C
1491562880.68,20864,11.69,72692.8,-2.73,-6.23,-6.09,0,*56
1491562881.93,20865,11.69,72692.5,-2.69,-5.89,-5.77,0,*55
1491562883.16,20866,11.69,72690.0,-2.69,-6.01,-5.93,0,*5F
1491562884.42,20867,11.69,72690.3,-2.69,-5.93,-5.77,0,*5C
1491562885.67,20868,11.69,72686.3,-2.67,-6.01,-5.89,0,*54
1491562886.87,20869,11.69,72686.5,-2.65,-6.39,-6.43,0,*59
1491562888.12,20870,11.69,72686.3,-2.67,-6.97,-6.89,0,*51
1491562889.34,20871,11.69,72688.8,-2.65,-6.97,-7.19,0,*5A
1491562890.59,20872,11.69,72700.8,-2.67,-7.39,-7.23,0,*57
1491562891.82,20873,11.69,72710.8,-2.65,-6.93,-6.81,0,*5C
1491562893.01,20874,11.69,72710.8,-2.65,-6.13,-6.05,0,*5F
1491562894.21,20875,11.69,72702.0,-2.65,-6.85,-6.77,0,*54
1491562895.49,20876,11.69,72696.0,-2.67,-9.15,-9.15,0,*58
1491562896.69,20877,11.69,72690.0,-2.65,-8.41,-8.29,0,*55
1491562897.93,20878,11.69,72688.8,-2.67,-7.83,-7.77,0,*5D
1491562899.16,20879,11.69,72690.5,-2.67,-7.53,-7.49,0,*5C
1491562900.36,20880,11.69,72692.8,-2.69,-7.11,-6.89,0,*5F
1491562901.57,20881,11.69,72696.5,-2.69,-6.89,-6.73,0,*5B
1491562902.84,20882,11.69,72698.0,-2.67,-7.35,-7.31,0,*57
1491562904.11,20883,11.69,72694.0,-2.67,-7.39,-7.35,0,*5E
1491562905.35,20884,11.69,72694.5,-2.67,-7.39,-7.23,0,*5E
1491562906.6,20885,11.69,72692.3,-2.67,-6.43,-6.23,0,*52
1491562907.87,20886,11.69,72700.0,-2.67,-7.91,-7.95,0,*53
1491562909.09,20887,11.69,72708.8,-2.67,-7.23,-7.15,0,*53
1491562910.32,20888,11.69,72710.5,-2.67,-6.89,-6.81,0,*51
1491562911.54,20889,11.69,72704.8,-2.67,-6.89,-6.85,0,*54
1491562912.79,20890,11.69,72698.5,-2.65,-7.31,-7.31,0,*52
1491562914.01,20891,11.69,72702.3,-2.65,-7.61,-7.49,0,*59
1491562915.23,20892,11.69,72706.5,-2.67,-7.53,-7.53,0,*52
1491562916.48,20893,11.69,72712.8,-2.67,-7.35,-7.23,0,*54
1491562917.71,20894,11.69,72716.5,-2.67,-7.15,-7.23,0,*51
1491562918.98,20895,11.69,72724.0,-2.67,-7.39,-7.27,0,*5A
1491562920.22,20896,11.69,72712.3,-2.65,-7.43,-7.35,0,*55
1491562921.42,20897,11.69,72710.0,-2.65,-6.55,-6.43,0,*52
1491562922.65,20898,11.69,72708.3,-2.67,-6.55,-6.47,0,*5B
1491562923.87,20899,11.69,72710.0,-2.65,-6.19,-6.01,0,*52
1491562925.12,20900,11.69,72708.3,-2.65,-6.27,-6.19,0,*57
1491562926.34,20901,11.69,72714.0,-2.63,-6.77,-6.77,0,*5D
1491562927.58,20902,11.69,72710.3,-2.63,-7.11,-7.11,0,*5E
1491562928.85,20903,11.69,72700.8,-2.63,-7.77,-7.57,0,*5D
1491562930.1,20904,11.69,72706.0,-2.61,-7.31,-7.27,0,*5D
1491562931.34,20905,11.69,72706.3,-2.63,-7.05,-6.85,0,*50
1491562932.56,20906,11.69,72700.0,-2.61,-6.23,-6.09,0,*50
1491562933.83,20907,11.69,72704.3,-2.63,-7.05,-6.97,0,*51
1491562935.08,20908,11.69,72712.5,-2.63,-7.49,-7.43,0,*5E
1491562936.36,20909,11.69,72708.3,-2.63,-7.35,-7.35,0,*55
1491562937.64,20910,11.69,72728.0,-2.63,-7.57,-7.35,0,*59
1491562938.86,20911,11.69,72718.8,-2.61,-6.73,-6.63,0,*5F
1491562940.11,20912,11.69,72714.0,-2.63,-7.49,-7.43,0,*55
1491562941.33,20913,11.69,72704.5,-2.63,-8.71,-8.71,0,*5E
1491562942.56,20914,11.69,72698.5,-2.65,-8.55,-8.51,0,*5B
1491562943.81,20915,11.69,72682.0,-2.65,-7.65,-7.57,0,*5F
1491562945.02,20916,11.69,72690.3,-2.65,-6.63,-6.51,0,*5C
1491562946.27,20917,11.69,72702.0,-2.65,-6.97,-6.93,0,*58
1491562947.5,20918,11.69,72696.3,-2.65,-6.93,-6.77,0,*59
1491562948.74,20919,11.69,72694.8,-2.65,-7.43,-7.35,0,*53
1491562949.99,20920,11.69,72700.3,-2.65,-7.43,-7.31,0,*5D
1491562951.19,20921,11.69,72708.8,-2.65,-6.81,-6.69,0,*5F
1491562952.4,20922,11.69,72708.3,-2.65,-6.27,-6.13,0,*5D
1491562953.63,20923,11.69,72700.8,-2.63,-6.43,-6.43,0,*5D
1491562954.85,20924,11.69,72702.8,-2.61,-7.27,-7.15,0,*59
1491562956.07,20925,11.69,72716.8,-2.63,-6.43,-6.39,0,*56
1491562957.27,20926,11.69,72708.8,-2.61,-6.47,-6.39,0,*53
1491562958.49,20927,11.69,72704.3,-2.61,-6.47,-6.27,0,*5D
1491562959.71,20928,11.69,72708.5,-2.61,-6.63,-6.59,0,*5D
1491562960.93,20929,11.69,72712.3,-2.57,-6.09,-5.81,0,*53
1491562962.15,20930,11.69,72714.3,-2.59,-6.39,-6.35,0,*5A
1491562963.35,20931,11.69,72714.8,-2.57,-6.77,-6.59,0,*55
1491562964.57,20932,11.69,72714.5,-2.55,-6.13,-6.01,0,*5B
1491562965.82,20933,11.69,72706.0,-2.55,-6.93,-6.73,0,*57
1491562967.06,20934,11.69,72702.8,-2.55,-7.19,-7.05,0,*53
1491562968.33,20935,11.69,72698.5,-2.55,-7.35,-7.31,0,*5B
1491562969.57,20936,11.69,72676.5,-2.55,-7.65,-7.53,0,*59
1491562970.79,20937,11.69,72692.5,-2.57,-7.15,-7.01,0,*5A
1491562972.01,20938,11.69,72686.3,-2.57,-7.83,-7.91,0,*53
1491562973.25,20939,11.69,72688.5,-2.57,-8.07,-8.03,0,*55
1491562974.51,20940,11.69,72700.3,-2.59,-7.53,-7.43,0,*50
1491562975.78,20941,11.69,72706.8,-2.59,-7.31,-7.31,0,*50
1491562976.97,20942,11.69,72712.0,-2.57,-6.43,-6.31,0,*58
1491562978.19,20943,11.69,72718.3,-2.57,-6.31,-6.23,0,*5F
1491562979.41,20944,11.69,72720.8,-2.57,-7.11,-7.01,0,*5A
1491562980.61,20945,11.69,72718.8,-2.57,-6.81,-6.77,0,*53
1491562981.8,20946,11.69,72716.0,-2.57,-6.47,-6.43,0,*5D
1491562983.02,20947,11.69,72708.3,-2.55,-6.85,-6.73,0,*53
1491562984.24,20948,11.69,72694.8,-2.55,-6.43,-6.39,0,*58
1491562985.44,20949,11.69,72678.8,-2.53,-6.51,-6.43,0,*51
1491562986.72,20950,11.69,72694.0,-2.55,-7.35,-7.35,0,*5C
1491562987.94,20951,11.69,72690.3,-2.55,-7.23,-7.19,0,*54
1491562989.22,20952,11.69,72682.3,-2.55,-7.73,-7.73,0,*5E
1491562990.46,20953,11.69,72700.5,-2.57,-7.95,-8.03,0,*5D
1491562991.71,20954,11.69,72720.3,-2.59,-7.53,-7.57,0,*50
1491562992.92,20955,11.69,72710.5,-2.59,-8.63,-8.75,0,*52
1491562994.15,20956,11.69,72710.0,-2.61,-7.95,-7.83,0,*5A
1491562995.39,20957,11.69,72706.8,-2.61,-7.05,-7.01,0,*58
1491562996.64,20958,11.75,72702.3,-2.61,-7.27,-7.27,0,*53
1491562997.86,20959,11.69,72688.8,-2.61,-7.95,-7.87,0,*51
1491562999.08,20960,11.69,72694.5,-2.61,-7.01,-6.89,0,*59
1491563000.36,20961,11.69,72700.0,-2.63,-7.91,-7.91,0,*5B
1491563001.57,20962,11.69,72716.8,-2.63,-8.29,-8.29,0,*58
1491563002.76,20963,11.69,72718.0,-2.65,-8.67,-8.67,0,*5F
1491563004.03,20964,11.69,72704.5,-2.67,-8.03,-7.91,0,*5E
1491563005.27,20965,11.75,72706.3,-2.65,-7.05,-6.93,0,*57
1491563006.47,20966,11.69,72706.0,-2.65,-6.55,-6.43,0,*5D
1491563007.68,20967,11.69,72704.8,-2.65,-6.51,-6.31,0,*5D
1491563008.9,20968,11.69,72706.3,-2.63,-6.43,-6.39,0,*5F
1491563010.1,20969,11.69,72706.0,-2.65,-6.81,-6.69,0,*53
1491563011.35,20970,11.69,72706.5,-2.63,-7.31,-7.19,0,*51
1491563012.62,20971,11.69,72704.3,-2.63,-7.61,-7.43,0,*5A
1491563013.85,20972,11.69,72704.3,-2.65,-7.35,-7.23,0,*58
1491563015.1,20973,11.69,72704.8,-2.63,-7.35,-7.23,0,*5F
1491563016.38,20974,11.69,72708.8,-2.63,-7.35,-7.35,0,*5F
1491563017.6,20975,11.69,72704.5,-2.65,-7.99,-7.87,0,*57
1491563018.85,20976,11.69,72708.8,-2.67,-7.27,-7.15,0,*58
1491563020.08,20977,11.69,72712.0,-2.67,-7.11,-7.11,0,*58
1491563021.31,20978,11.69,72708.5,-2.65,-7.11,-6.97,0,*5A
1491563022.5,20979,11.69,72712.8,-2.65,-6.39,-6.31,0,*5C
1491563023.74,20980,11.75,72712.8,-2.61,-6.93,-6.81,0,*55
1491563024.98,20981,11.69,72708.8,-2.63,-6.63,-6.51,0,*54
1491563026.26,20982,11.69,72708.5,-2.63,-7.57,-7.57,0,*56
1491563027.53,20983,11.69,72712.5,-2.63,-7.91,-7.99,0,*5F
1491563028.78,20984,11.69,72712.5,-2.63,-6.93,-6.85,0,*57
1491563030.03,20985,11.69,72712.3,-2.63,-6.77,-6.63,0,*54
1491563031.29,20986,11.69,72716.0,-2.63,-6.31,-6.19,0,*58
1491563032.54,20987,11.69,72716.8,-2.63,-6.01,-5.89,0,*50
1491563033.79,20988,11.69,72716.3,-2.61,-5.85,-5.69,0,*5C
1491563035.07,20989,11.69,72714.0,-2.59,-5.93,-5.81,0,*57
1491563036.27,20990,11.69,72708.3,-2.57,-6.09,-5.97,0,*56
1491563037.52,20991,11.69,72706.0,-2.59,-6.73,-6.63,0,*5C
1491563038.71,20992,11.69,72710.3,-2.57,-6.59,-6.59,0,*50
1491563039.91,20993,11.69,72720.3,-2.57,-6.43,-6.31,0,*54
1491563041.13,20994,11.69,72704.0,-2.53,-6.63,-6.55,0,*57
1491563042.37,20995,11.69,72704.5,-2.55,-6.05,-5.93,0,*59
1491563043.59,20996,11.69,72702.8,-2.53,-6.27,-6.13,0,*57
1491563044.79,20997,11.75,72704.8,-2.53,-6.43,-6.43,0,*51
1491563046.01,20998,11.69,72704.8,-2.53,-6.97,-6.85,0,*5D
1491563047.21,20999,11.69,72704.3,-2.53,-6.55,-6.55,0,*5F
1491563048.41,21000,11.69,72706.3,-2.53,-6.39,-6.31,0,*5F
1491563049.63,21001,11.69,72710.5,-2.49,-7.01,-7.19,0,*54
1491563050.89,21002,11.69,72712.8,-2.51,-7.39,-7.27,0,*58
1491563052.09,21003,11.69,72716.0,-2.53,-6.81,-6.73,0,*59
1491563053.36,21004,11.69,72710.5,-2.51,-8.11,-8.11,0,*51
1491563054.58,21005,11.69,72710.8,-2.53,-7.19,-7.05,0,*5F
1491563055.81,21006,11.69,72710.8,-2.53,-6.97,-6.85,0,*52
1491563057.0,21007,11.69,72710.8,-2.53,-6.55,-6.39,0,*5A
1491563058.21,21008,11.69,72702.8,-2.53,-7.19,-7.11,0,*57
1491563059.46,21009,11.69,72710.0,-2.53,-7.73,-7.61,0,*5D
1491563060.66,21010,11.69,72700.8,-2.53,-8.37,-8.25,0,*55
1491563061.88,21011,11.69,72692.0,-2.53,-8.25,-8.11,0,*50
1491563063.15,21012,11.69,72686.0,-2.55,-7.35,-7.31,0,*56
1491563064.43,21013,11.69,72678.5,-2.59,-8.11,-7.95,0,*5C
1491563065.67,21014,11.69,72674.0,-2.57,-8.07,-8.03,0,*52
1491563066.9,21015,11.69,72704.0,-2.59,-6.89,-6.81,0,*51
1491563068.12,21016,11.69,72718.8,-2.57,-7.01,-7.23,0,*54
1491563069.35,21017,11.69,72712.8,-2.59,-7.19,-7.19,0,*5B
1491563070.6,21018,11.69,72714.0,-2.59,-7.53,-7.43,0,*55
1491563071.82,21019,11.69,72710.8,-2.59,-6.89,-6.73,0,*50
1491563073.07,21020,11.69,72702.8,-2.59,-6.77,-6.63,0,*5A
1491563074.29,21021,11.75,72714.0,-2.57,-7.35,-7.23,0,*57
1491563075.49,21022,11.69,72714.8,-2.57,-6.85,-6.73,0,*5A
1491563076.71,21023,11.69,72706.3,-2.59,-6.59,-6.47,0,*53
1491563077.91,21024,11.75,72714.8,-2.57,-6.55,-6.47,0,*56
1491563079.1,21025,11.75,72704.8,-2.57,-7.15,-7.15,0,*54
1491563080.35,21026,11.69,72706.3,-2.59,-6.63,-6.35,0,*5A
1491563081.55,21027,11.69,72700.0,-2.57,-6.43,-6.35,0,*57
1491563082.74,21028,11.69,72698.5,-2.57,-6.55,-6.43,0,*5E
1491563083.96,21029,11.69,72706.0,-2.55,-6.43,-6.39,0,*57
1491563085.19,21030,11.69,72714.5,-2.53,-6.51,-6.27,0,*55
1491563086.41,21031,11.69,72714.3,-2.53,-6.63,-6.51,0,*54
1491563087.62,21032,11.75,72714.8,-2.53,-6.27,-6.01,0,*52
1491563088.84,21033,11.75,72716.5,-2.51,-6.51,-6.39,0,*5B
1491563090.09,21034,11.75,72718.5,-2.51,-6.39,-6.27,0,*5D
1491563091.28,21035,11.75,72718.0,-2.49,-6.47,-6.39,0,*53
1491563092.47,21036,11.69,72716.0,-2.49,-6.35,-6.01,0,*5E
1491563093.68,21037,11.69,72714.8,-2.49,-6.39,-6.23,0,*53
1491563094.91,21038,11.69,72712.8,-2.49,-6.13,-5.85,0,*5B
1491563096.11,21039,11.75,72712.5,-2.45,-6.59,-6.43,0,*51
1491563097.36,21040,11.75,72716.3,-2.45,-6.19,-5.85,0,*52
1491563098.58,21041,11.75,72718.8,-2.43,-6.05,-5.81,0,*5C
1491563099.84,21042,11.69,72718.5,-2.39,-5.93,-5.65,0,*54
1491563101.1,21043,11.69,72714.8,-2.39,-6.19,-5.89,0,*56
1491563102.33,21044,11.75,72714.5,-2.39,-6.19,-6.05,0,*56
1491563103.59,21045,11.69,72710.3,-2.39,-6.19,-5.93,0,*5B
1491563104.82,21046,11.75,72706.3,-2.39,-6.31,-6.19,0,*53
1491563106.07,21047,11.75,72702.3,-2.37,-5.31,-4.99,0,*55
1491563107.3,21048,11.75,72690.0,-2.37,-6.13,-6.09,0,*52
1491563108.52,21049,11.75,72694.3,-2.35,-6.85,-6.63,0,*52
1491563109.73,21050,11.69,72696.8,-2.35,-6.59,-6.43,0,*59
1491563110.98,21051,11.75,72716.8,-2.37,-6.93,-6.77,0,*5B
1491563112.18,21052,11.75,72710.3,-2.35,-6.89,-6.73,0,*55
1491563113.39,21053,11.69,72706.5,-2.35,-6.43,-6.31,0,*54
1491563114.62,21054,11.69,72700.8,-2.31,-6.19,-6.13,0,*58
1491563115.85,21055,11.75,72710.0,-2.31,-6.01,-5.89,0,*50
1491563117.08,21056,11.69,72714.8,-2.31,-6.01,-5.89,0,*53
1491563118.34,21057,11.69,72712.5,-2.31,-5.93,-5.77,0,*5B
1491563119.59,21058,11.69,72716.8,-2.31,-5.77,-5.65,0,*5D
1491563120.84,21059,11.69,72716.5,-2.29,-5.35,-5.11,0,*50
1491563122.06,21060,11.75,72726.5,-2.23,-5.73,-5.43,0,*55
1491563123.29,21061,11.69,72724.0,-2.23,-6.01,-5.85,0,*58
1491563124.52,21062,11.69,72714.3,-2.23,-6.19,-6.09,0,*55
1491563125.8,21063,11.69,72718.0,-2.21,-5.85,-5.69,0,*55
1491563127.07,21064,11.75,72722.3,-2.21,-5.73,-5.89,0,*55
1491563128.32,21065,11.75,72722.8,-2.19,-7.57,-7.43,0,*5F
1491563129.55,21066,11.69,72722.3,-2.21,-8.89,-8.75,0,*51
1491563130.8,21067,11.69,72724.3,-2.23,-9.45,-9.37,0,*54
1491563132.03,21068,11.75,72716.8,-2.29,-10.09,-10.19,0,*55
1491563133.31,21069,11.69,72714.3,-2.33,-9.53,-9.53,0,*5E
1491563134.55,21070,11.69,72706.8,-2.35,-9.57,-9.57,0,*50
1491563135.77,21071,11.69,72712.5,-2.41,-8.71,-8.59,0,*58
1491563137.02,21072,11.69,72716.0,-2.41,-7.91,-7.87,0,*56
1491563138.24,21073,11.69,72716.8,-2.41,-8.55,-8.55,0,*50
1491563139.46,21074,11.69,72720.8,-2.41,-8.71,-8.59,0,*5D
1491563140.68,21075,11.69,72720.0,-2.45,-7.53,-7.39,0,*5E
1491563141.88,21076,11.69,72722.0,-2.45,-7.23,-7.15,0,*54
1491563143.1,21077,11.69,72720.3,-2.45,-6.97,-6.85,0,*53
1491563144.3,21078,11.69,72718.3,-2.43,-6.31,-6.05,0,*5E
1491563145.51,21079,11.69,72718.0,-2.43,-6.55,-6.43,0,*5F
1491563146.74,21080,11.75,72712.3,-2.43,-8.17,-8.07,0,*5F
1491563147.94,21081,11.69,72708.5,-2.43,-7.53,-7.23,0,*58
1491563149.17,21082,11.69,72714.0,-2.43,-6.35,-6.23,0,*5B
1491563150.42,21083,11.69,72716.8,-2.43,-7.27,-7.27,0,*5D
1491563151.64,21084,11.69,72710.3,-2.43,-7.53,-7.39,0,*56
1491563152.89,21085,11.69,72704.5,-2.43,-7.43,-7.39,0,*56
1491563154.12,21086,11.69,72710.8,-2.43,-7.95,-7.83,0,*5F
1491563155.35,21087,11.75,72708.0,-2.43,-7.53,-7.39,0,*55
1491563156.58,21088,11.69,72704.5,-2.49,-9.83,-9.83,0,*5C
1491563157.8,21089,11.69,72702.5,-2.49,-7.99,-7.87,0,*52
1491563159.04,21090,11.69,72690.8,-2.49,-7.39,-7.31,0,*5D
1491563160.29,21091,11.69,72690.8,-2.51,-7.05,-6.81,0,*50
1491563161.53,21092,11.69,72690.5,-2.51,-7.05,-6.89,0,*5B
1491563162.76,21093,11.69,72696.8,-2.51,-7.19,-7.15,0,*53
1491563163.98,21094,11.69,72694.8,-2.51,-7.87,-7.83,0,*5C
1491563165.23,21095,11.69,72702.3,-2.51,-7.31,-7.19,0,*53
1491563166.49,21096,11.75,72704.0,-2.51,-7.05,-6.93,0,*54
1491563167.72,21097,11.69,72706.8,-2.51,-6.89,-6.81,0,*53
1491563168.99,21098,11.69,72704.3,-2.51,-7.73,-7.69,0,*5F
1491563170.27,21099,11.69,72704.8,-2.51,-7.61,-7.61,0,*55
1491563171.46,21100,11.69,72702.0,-2.53,-8.71,-8.71,0,*56
1491563172.69,21101,11.69,72700.8,-2.53,-7.65,-7.49,0,*59
1491563173.91,21102,11.69,72702.5,-2.53,-7.91,-7.87,0,*53
1491563175.13,21103,11.75,72706.0,-2.55,-8.55,-8.41,0,*56
1491563176.35,21104,11.75,72704.0,-2.59,-8.37,-8.33,0,*5C
1491563177.58,21105,11.69,72698.5,-2.59,-8.45,-8.37,0,*5C
1491563178.83,21106,11.69,72696.0,-2.59,-8.63,-8.51,0,*5B
1491563180.05,21107,11.69,72688.8,-2.63,-8.59,-8.41,0,*5B
1491563181.29,21108,11.69,72688.3,-2.61,-7.39,-7.31,0,*57
1491563182.56,21109,11.69,72694.3,-2.63,-8.03,-7.99,0,*50
1491563183.78,21110,11.69,72696.5,-2.63,-8.25,-8.17,0,*55
1491563185.05,21111,11.75,72696.0,-2.63,-7.77,-7.65,0,*56
1491563186.3,21112,11.69,72688.5,-2.63,-7.35,-7.19,0,*58
1491563187.58,21113,11.75,72690.3,-2.63,-7.43,-7.31,0,*52
1491563188.83,21114,11.69,72686.0,-2.63,-7.05,-6.85,0,*59
1491563190.1,21115,11.69,72690.5,-2.63,-7.65,-7.57,0,*50
1491563191.35,21116,11.75,72696.5,-2.63,-7.61,-7.49,0,*58
1491563192.61,21117,11.75,72700.8,-2.63,-7.11,-6.97,0,*5C
1491563193.85,21118,11.69,72702.0,-2.61,-7.27,-7.27,0,*5E
1491563195.1,21119,11.69,72694.3,-2.63,-7.19,-7.05,0,*50
1491563196.34,21120,11.69,72692.8,-2.61,-7.31,-7.27,0,*52
1491563197.56,21121,11.69,72696.8,-2.61,-7.53,-7.39,0,*58
1491563198.79,21122,11.69,72698.8,-2.61,-7.01,-6.81,0,*5E
1491563199.99,21123,11.75,72704.8,-2.61,-7.19,-7.19,0,*56
1491563201.21,21124,11.69,72702.5,-2.61,-7.31,-7.15,0,*57
1491563202.41,21125,11.75,72702.8,-2.61,-6.59,-6.47,0,*5F
1491563203.66,21126,11.69,72702.0,-2.59,-6.93,-6.73,0,*56
1491563204.93,21127,11.69,72698.8,-2.59,-7.05,-7.01,0,*5D
1491563206.19,21128,11.69,72692.0,-2.59,-6.93,-6.81,0,*55
1491563207.39,21129,11.69,72696.8,-2.57,-6.73,-6.59,0,*51
1491563208.57,21130,11.69,72696.8,-2.57,-6.69,-6.69,0,*51
1491563209.83,21131,11.69,72696.5,-2.59,-7.27,-7.05,0,*5E
1491563211.03,21132,11.69,72696.8,-2.57,-6.59,-6.31,0,*5D
1491563212.23,21133,11.69,72698.0,-2.57,-7.11,-6.89,0,*52
1491563213.48,21134,11.69,72692.3,-2.57,-7.65,-7.65,0,*55
1491563214.7,21135,11.69,72694.5,-2.57,-8.03,-7.83,0,*53
1491563215.89,21136,11.69,72698.3,-2.57,-6.85,-6.59,0,*56
1491563217.13,21137,11.69,72696.3,-2.57,-6.97,-7.01,0,*58
1491563218.35,21138,11.69,72694.5,-2.57,-7.15,-6.97,0,*52
1491563219.55,21139,11.69,72692.3,-2.57,-6.77,-6.73,0,*5C
1491563220.77,21140,11.69,72696.8,-2.57,-7.27,-7.23,0,*52
1491563222.01,21141,11.69,72700.0,-2.57,-7.39,-7.27,0,*58
1491563223.25,21142,11.75,72702.3,-2.57,-7.95,-7.95,0,*54
1491563224.51,21143,11.69,72700.0,-2.55,-7.05,-6.97,0,*5D
1491563225.71,21144,11.69,72702.3,-2.57,-6.89,-6.77,0,*53
1491563226.96,21145,11.69,72706.5,-2.57,-7.57,-7.57,0,*53
1491563228.21,21146,11.69,72700.3,-2.59,-7.53,-7.43,0,*5F
1491563229.45,21147,11.69,72700.3,-2.57,-7.69,-7.69,0,*51
1491563230.72,21148,11.69,72698.8,-2.59,-7.99,-7.99,0,*50
1491563231.95,21149,11.69,72700.5,-2.59,-7.19,-7.15,0,*5D
1491563233.22,21150,11.69,72702.5,-2.59,-7.39,-7.31,0,*51
1491563234.41,21151,11.69,72700.0,-2.57,-6.43,-6.43,0,*56
1491563235.63,21152,11.69,72700.3,-2.59,-6.47,-6.39,0,*52
1491563236.88,21153,11.69,72706.5,-2.57,-5.81,-5.61,0,*5A
1491563238.15,21154,11.69,72704.0,-2.55,-5.89,-5.73,0,*54
1491563239.4,21155,11.69,72708.3,-2.55,-6.19,-6.05,0,*5D
1491563240.62,21156,11.69,72708.3,-2.55,-6.85,-6.73,0,*5A
1491563241.86,21157,11.69,72706.5,-2.53,-7.05,-6.97,0,*5E
1491563243.08,21158,11.69,72714.8,-2.53,-7.31,-7.23,0,*58
1491563244.33,21159,11.69,72712.3,-2.55,-7.49,-7.35,0,*57
1491563245.57,21160,11.69,72708.0,-2.55,-6.97,-6.85,0,*55
1491563246.79,21161,11.69,72702.0,-2.53,-6.69,-6.63,0,*5B
1491563248.04,21162,11.75,72706.3,-2.53,-7.73,-7.91,0,*5E
1491563249.26,21163,11.69,72708.3,-2.55,-8.29,-8.29,0,*55
1491563250.54,21164,11.69,72718.5,-2.59,-8.07,-8.07,0,*5E
1491563251.78,21165,11.69,72712.8,-2.57,-7.99,-7.99,0,*51
1491563253.03,21166,11.69,72710.3,-2.59,-8.21,-8.11,0,*5F
1491563254.23,21167,11.69,72710.0,-2.61,-7.87,-7.83,0,*52
1491563255.51,21168,11.69,72720.8,-2.63,-7.61,-7.35,0,*5A
1491563256.78,21169,11.69,72724.0,-2.63,-7.99,-7.99,0,*5A
1491563258.05,21170,11.69,72724.5,-2.63,-7.99,-7.91,0,*5A
1491563259.33,21171,11.69,72718.0,-2.63,-7.73,-7.73,0,*53
1491563260.6,21172,11.69,72706.8,-2.63,-8.03,-8.03,0,*50
1491563261.85,21173,11.69,72704.8,-2.63,-8.17,-8.11,0,*57
1491563263.07,21174,11.69,72710.3,-2.65,-7.91,-7.87,0,*57
1491563264.34,21175,11.69,72714.0,-2.67,-7.95,-7.95,0,*53
1491563265.58,21176,11.69,72714.5,-2.67,-7.65,-7.53,0,*55
1491563266.85,21177,11.69,72714.0,-2.67,-7.69,-7.77,0,*5E
1491563268.07,21178,11.69,72704.5,-2.67,-8.29,-8.33,0,*55
1491563269.34,21179,11.69,72714.0,-2.67,-8.03,-7.91,0,*5B
1491563270.56,21180,11.69,72716.8,-2.69,-8.03,-8.17,0,*52
1491563271.76,21181,11.69,72714.8,-2.69,-7.49,-7.49,0,*56
1491563272.98,21182,11.69,72708.5,-2.73,-7.87,-7.95,0,*5D
1491563274.2,21183,11.69,72708.8,-2.69,-7.49,-7.39,0,*53
1491563275.4,21184,11.69,72714.0,-2.73,-6.55,-6.43,0,*5F
1491563276.6,21185,11.69,72714.5,-2.73,-6.47,-6.35,0,*5C
1491563277.83,21186,11.69,72710.0,-2.67,-7.23,-7.23,0,*5F
1491563279.05,21187,11.69,72710.3,-2.65,-6.69,-6.63,0,*56
1491563280.27,21188,11.69,72704.5,-2.65,-6.31,-6.19,0,*59
1491563281.52,21189,11.69,72706.5,-2.65,-6.27,-6.19,0,*5F
1491563282.76,21190,11.69,72704.0,-2.63,-6.39,-6.27,0,*53
1491563283.99,21191,11.69,72698.3,-2.63,-6.85,-6.81,0,*59
1491563285.21,21192,11.69,72714.0,-2.61,-7.15,-7.01,0,*59
1491563286.43,21193,11.69,72710.5,-2.63,-6.69,-6.69,0,*5F
1491563287.65,21194,11.69,72706.3,-2.61,-7.15,-7.01,0,*5F
1491563288.85,21195,11.69,72712.3,-2.61,-6.47,-6.39,0,*52
1491563290.07,21196,11.69,72708.0,-2.61,-6.93,-6.89,0,*53
1491563291.34,21197,11.69,72694.8,-2.63,-7.35,-7.35,0,*5B
1491563292.59,21198,11.69,72718.0,-2.59,-7.05,-6.89,0,*58
1491563293.84,21199,11.69,72708.8,-2.59,-7.69,-7.83,0,*58
1491563295.07,21200,11.75,72706.8,-2.63,-8.71,-8.59,0,*5C
1491563296.29,21201,11.69,72706.3,-2.63,-7.23,-7.19,0,*5E
1491563297.51,21202,11.69,72710.3,-2.61,-6.63,-6.59,0,*5F
1491563298.76,21203,11.69,72712.8,-2.61,-7.01,-6.93,0,*5D
1491563299.95,21204,11.69,72708.0,-2.61,-8.21,-8.25,0,*54
1491563301.15,21205,11.69,72704.5,-2.61,-8.55,-8.45,0,*50
1491563302.37,21206,11.69,72700.3,-2.63,-8.29,-8.25,0,*5C
1491563303.62,21207,11.75,72702.3,-2.63,-8.51,-8.37,0,*51
1491563304.87,21208,11.69,72698.8,-2.63,-7.23,-7.05,0,*5A
1491563306.12,21209,11.69,72694.3,-2.63,-7.11,-6.97,0,*50
1491563307.35,21210,11.69,72698.3,-2.63,-7.23,-7.19,0,*5E
1491563308.62,21211,11.69,72696.3,-2.63,-7.05,-6.97,0,*5C
1491563309.84,21212,11.69,72694.5,-2.61,-6.39,-6.27,0,*58